Location: *
(58.4167°N, 22.5000°E)
Time: 03:04:16
(UTC+00:00)

Cosmos 1626 - Pass Details

Date: 22 September 2019
Orbit: 493 x 495 km, 82.5° (Epoch: 18 October)

Event Time Altitude Azimuth Distance (km) Brightness Sun altitude
Rises 17:47:12 0° 352° (N) 2,595 6.1 -10.7°
Reaches altitude 10° 17:49:37 10° 6° (N) 1,707 5.0 -11.0°
Maximum altitude 17:52:44 24° 63° (ENE) 1,055 3.4 -11.4°
Enters shadow 17:54:25 18° 102° (ESE) 1,280 3.5 -11.6°
